Location: Ajisawe
(8.4333°N, 4.3833°E)
Time: 13:46:19
(UTC+00:00)

Courier 1B Rocket - Pass Details

Date: 24 April 2021
Orbit: 920 x 1202 km, 28.2° (Epoch: 07 May)

Event Time Altitude Azimuth Distance (km) Brightness Sun altitude
Rises 20:29:27 0° 314° (NW) 3,694 8.9 -37.9°
Reaches altitude 10° 20:33:17 10° 335° (NNW) 2,801 7.8 -38.7°
Enters shadow 20:36:27 16° 3° (N) 2,453 7.2 -39.5°
Maximum altitude 20:37:18 16° 12° (NNE) 2,445 - -39.6°
Drops below altitude 10° 20:41:27 10° 47° (NE) 2,927 - -40.6°
Sets 20:45:36 0° 68° (ENE) 3,946 - -41.5°
